GW6994 Weather Reports


time (UTC)temp
C
wind
direction
speed
KPH
gust
KPH
rain 1hr
cm
rain 24hr
cm
rain mn
cm
humidity
%
barometer
mb
20260510203154 22 68 24.1 25.7 0.00 0.00 0.00 39 1060.4
20260510202654 22 68 24.1 25.7 0.00 0.00 0.00 39 1060.2
20260510202149 22 68 24.1 25.7 0.00 0.00 0.00 39 1060.1
20260510201647 22 68 24.1 25.7 0.00 0.00 0.00 39 1060.4
20260510201143 22 68 24.1 25.7 0.00 0.00 0.00 39 1060.4
20260510200640 22 68 24.1 25.7 0.00 0.00 0.00 39 1060.3
20260510200137 22 68 24.1 25.7 0.00 0.00 0.00 39 1060.4
20260510195635 22 68 24.1 25.7 0.00 0.00 0.00 39 1060.0
20260510195131 22 213 3.2 3.2 0.00 0.00 0.00 37 1060.2
20260510194630 22 6 4.8 6.4 0.00 0.00 0.00 39 1060.2
20260510194127 22 6 4.8 6.4 0.00 0.00 0.00 39 1060.5
20260510193622 22 6 4.8 6.4 0.00 0.00 0.00 39 1060.3
20260510193118 22 6 4.8 6.4 0.00 0.00 0.00 39 1060.3
20260510192613 22 6 4.8 6.4 0.00 0.00 0.00 39 1060.4
20260510192109 22 6 4.8 6.4 0.00 0.00 0.00 39 1060.5
20260510191606 22 267 0.0 1.6 0.00 0.00 0.00 41 1060.4
20260510191102 22 57 1.6 3.2 0.00 0.00 0.00 40 1060.3
20260510190600 22 57 1.6 3.2 0.00 0.00 0.00 40 1060.4
20260510190057 22 57 1.6 3.2 0.00 0.00 0.00 40 1060.3
20260510185554 22 57 1.6 3.2 0.00 0.00 0.00 40 1060.4
20260510185051 21 3 4.8 8.0 0.00 0.00 0.00 38 1060.2
20260510184548 21 60 4.8 9.7 0.00 0.00 0.00 41 1060.2
20260510184044 21 60 4.8 9.7 0.00 0.00 0.00 41 1060.2
20260510183539 21 60 4.8 9.7 0.00 0.00 0.00 41 1060.4
20260510183034 21 60 4.8 9.7 0.00 0.00 0.00 41 1060.4
20260510182532 21 60 4.8 9.7 0.00 0.00 0.00 41 1060.3
20260510182027 21 60 4.8 9.7 0.00 0.00 0.00 41 1060.2
20260510181525 21 60 4.8 9.7 0.00 0.00 0.00 41 1060.2
20260510181021 21 60 4.8 9.7 0.00 0.00 0.00 41 1060.0
20260510180518 21 60 4.8 9.7 0.00 0.00 0.00 41 1059.9
20260510180015 21 60 4.8 9.7 0.00 0.00 0.00 41 1060.0
20260510175510 21 60 4.8 9.7 0.00 0.00 0.00 41 1059.9
20260510175007 21 60 4.8 9.7 0.00 0.00 0.00 41 1059.7
20260510174505 21 60 4.8 6.4 0.00 0.00 0.00 44 1060.0
20260510174001 21 67 11.3 20.9 0.00 0.00 0.00 40 1059.7
20260510173457 20 80 8.0 8.0 0.00 0.00 0.00 46 1059.9
20260510172954 20 52 4.8 6.4 0.00 0.00 0.00 40 1059.9
20260510172449 20 52 4.8 6.4 0.00 0.00 0.00 40 1059.6
20260510171946 20 52 4.8 6.4 0.00 0.00 0.00 40 1059.6
20260510171443 20 52 4.8 17.7 0.00 0.00 0.00 40 1059.6
20260510170939 20 85 6.4 8.0 0.00 0.00 0.00 43 1059.5
20260510170436 20 85 6.4 8.0 0.00 0.00 0.00 43 1059.5
20260510165932 20 85 6.4 8.0 0.00 0.00 0.00 43 1059.6
20260510165428 20 85 6.4 8.0 0.00 0.00 0.00 43 1059.5
20260510164925 20 69 9.7 12.9 0.00 0.00 0.00 43 1059.3
20260510164423 20 71 12.9 16.1 0.00 0.00 0.00 41 1059.6
20260510163923 20 69 3.2 6.4 0.00 0.00 0.00 45 1059.5
20260510163420 20 69 3.2 6.4 0.00 0.00 0.00 45 1059.5
20260510162919 20 69 3.2 6.4 0.00 0.00 0.00 45 1059.5
20260510162417 20 69 3.2 6.4 0.00 0.00 0.00 45 1059.5
20260510161913 20 69 3.2 6.4 0.00 0.00 0.00 45 1059.6
20260510161408 20 69 3.2 6.4 0.00 0.00 0.00 45 1059.4
20260510160906 20 69 3.2 6.4 0.00 0.00 0.00 45 1059.4
20260510160403 20 69 3.2 6.4 0.00 0.00 0.00 45 1059.3
20260510155902 18 58 4.8 8.0 0.00 0.00 0.00 46 1059.2
20260510155359 18 58 4.8 8.0 0.00 0.00 0.00 46 1059.3
20260510154855 18 58 4.8 8.0 0.00 0.00 0.00 46 1059.2
20260510154352 18 66 9.7 17.7 0.00 0.00 0.00 48 1059.1
20260510153850 18 66 9.7 17.7 0.00 0.00 0.00 48 1059.1
20260510153347 18 66 9.7 17.7 0.00 0.00 0.00 48 1059.4
20260510152844 18 66 9.7 17.7 0.00 0.00 0.00 48 1059.2
20260510152341 18 66 9.7 17.7 0.00 0.00 0.00 48 1059.5
20260510151837 18 66 9.7 17.7 0.00 0.00 0.00 48 1059.4
20260510151335 18 66 9.7 17.7 0.00 0.00 0.00 48 1059.4
20260510150831 18 66 9.7 17.7 0.00 0.00 0.00 48 1059.4
20260510150327 18 66 9.7 17.7 0.00 0.00 0.00 48 1059.9
20260510145823 18 66 9.7 17.7 0.00 0.00 0.00 48 1059.6
20260510145319 18 66 9.7 17.7 0.00 0.00 0.00 48 1059.5
20260510144816 18 75 4.8 16.1 0.00 0.00 0.00 51 1059.5
20260510144313 18 75 4.8 16.1 0.00 0.00 0.00 51 1059.7
20260510143813 18 75 4.8 16.1 0.00 0.00 0.00 51 1059.5
20260510143309 18 75 4.8 16.1 0.00 0.00 0.00 51 1059.4
20260510142806 16 74 16.1 17.7 0.00 0.00 0.00 54 1059.5
20260510142305 16 74 16.1 17.7 0.00 0.00 0.00 54 1059.3
20260510141800 16 74 16.1 17.7 0.00 0.00 0.00 54 1059.3
20260510141258 16 74 16.1 17.7 0.00 0.00 0.00 54 1059.4
20260510140755 16 74 16.1 17.7 0.00 0.00 0.00 54 1059.2
20260510140250 16 74 16.1 17.7 0.00 0.00 0.00 54 1059.0
20260510135749 16 74 16.1 17.7 0.00 0.00 0.00 54 1058.7
20260510135245 16 74 16.1 17.7 0.00 0.00 0.00 54 1058.7
20260510134743 16 67 3.2 20.9 0.00 0.00 0.00 56 1058.4
20260510134240 16 65 12.9 12.9 0.00 0.00 0.00 59 1058.4
20260510133736 16 74 9.7 12.9 0.00 0.00 0.00 58 1058.6
20260510133231 16 65 9.7 17.7 0.00 0.00 0.00 61 1058.3
20260510132728 17 68 6.4 9.7 0.00 0.00 0.00 60 1058.1
20260510132225 17 79 11.3 14.5 0.00 0.00 0.00 57 1058.3
20260510131722 17 66 6.4 9.7 0.00 0.00 0.00 60 1058.2
20260510131220 16 72 6.4 17.7 0.00 0.00 0.00 59 1058.0
20260510130716 17 82 6.4 9.7 0.00 0.00 0.00 61 1058.0
20260510130214 16 91 6.4 19.3 0.00 0.00 0.00 63 1058.1
20260510125709 16 74 12.9 22.5 0.00 0.00 0.00 61 1057.7
20260510125206 17 86 3.2 8.0 0.00 0.00 0.00 65 1057.7
20260510124703 17 91 8.0 8.0 0.00 0.00 0.00 66 1057.7
20260510124201 16 89 1.6 6.4 0.00 0.00 0.00 68 1057.6
20260510123655 16 82 3.2 12.9 0.00 0.00 0.00 71 1057.5
20260510123152 16 87 1.6 17.7 0.00 0.00 0.00 71 1057.4
20260510122648 16 49 3.2 12.9 0.00 0.00 0.00 72 1057.4
20260510122144 15 94 8.0 25.7 0.00 0.00 0.00 74 1057.5
20260510121641 15 91 1.6 14.5 0.00 0.00 0.00 75 1057.1
20260510121138 15 73 3.2 9.7 0.00 0.00 0.00 76 1057.3
20260510120636 15 98 8.0 9.7 0.00 0.00 0.00 77 1056.9
20260510120131 15 102 6.4 8.0 0.00 0.00 0.00 79 1057.0
20260510115628 15 92 3.2 8.0 0.00 0.00 0.00 82 1056.9
20260510115126 15 65 3.2 9.7 0.00 0.00 0.00 82 1056.7
20260510114621 15 121 3.2 6.4 0.00 0.00 0.00 82 1056.6
20260510114117 15 91 3.2 6.4 0.00 0.00 0.00 83 1056.3
20260510113613 14 130 1.6 6.4 0.00 0.00 0.00 86 1056.4
20260510113110 14 102 1.6 6.4 0.00 0.00 0.00 86 1056.1
20260510112607 14 19 1.6 8.0 0.00 0.00 0.00 86 1056.2
20260510112104 15 109 0.0 6.4 0.00 0.00 0.00 86 1056.2
20260510111600 14 49 1.6 8.0 0.00 0.00 0.00 86 1056.0
20260510111056 15 74 0.0 4.8 0.00 0.00 0.00 86 1056.3
20260510110552 15 76 3.2 4.8 0.00 0.00 0.00 85 1056.3
20260510110049 15 85 3.2 6.4 0.00 0.00 0.00 86 1056.3
20260510105544 15 83 3.2 6.4 0.00 0.00 0.00 86 1056.3
20260510105039 15 75 3.2 8.0 0.00 0.00 0.00 87 1056.1
20260510104536 15 93 3.2 6.4 0.00 0.00 0.00 88 1056.2
20260510104032 15 96 1.6 6.4 0.00 0.00 0.00 87 1056.2
20260510103530 15 91 3.2 4.8 0.00 0.00 0.00 87 1055.8
20260510103026 15 15 3.2 9.7 0.00 0.00 0.00 88 1055.8
20260510102521 14 31 0.0 8.0 0.00 0.00 0.00 88 1055.5
20260510102018 14 200 1.6 3.2 0.00 0.00 0.00 88 1055.5
20260510101515 15 48 0.0 4.8 0.00 0.00 0.00 87 1055.4
20260510101014 15 80 4.8 8.0 0.00 0.00 0.00 86 1055.5
20260510100509 15 89 3.2 6.4 0.00 0.00 0.00 86 1055.3
20260510100007 15 82 1.6 6.4 0.00 0.00 0.00 86 1055.2
20260510095502 15 104 3.2 4.8 0.00 0.00 0.00 87 1055.4
20260510095001 15 78 1.6 6.4 0.00 0.00 0.00 87 1055.4
20260510094456 15 93 3.2 4.8 0.00 0.00 0.00 87 1055.3
20260510093952 15 61 1.6 3.2 0.00 0.00 0.00 86 1055.1
20260510093448 15 77 3.2 6.4 0.00 0.00 0.00 86 1054.9
20260510092945 15 86 3.2 8.0 0.00 0.00 0.00 86 1054.9
20260510092442 15 93 4.8 4.8 0.00 0.00 0.00 86 1054.8
20260510091942 15 86 4.8 4.8 0.00 0.00 0.00 86 1054.7
20260510091439 15 83 0.0 4.8 0.00 0.00 0.00 87 1054.6
20260510090936 14 107 0.0 3.2 0.00 0.00 0.00 88 1054.5
20260510090433 14 81 6.4 6.4 0.00 0.00 0.00 90 1054.4
20260510085928 13 89 0.0 4.8 0.00 0.00 0.00 92 1054.4
20260510085424 13 116 0.0 1.6 0.00 0.00 0.00 92 1054.5
20260510084919 13 54 0.0 3.2 0.00 0.00 0.00 92 1054.5
20260510084416 13 89 0.0 1.6 0.00 0.00 0.00 93 1054.3
20260510083913 13 73 0.0 1.6 0.00 0.00 0.00 93 1054.3
20260510083409 13 128 3.2 3.2 0.00 0.00 0.00 93 1054.3
20260510082905 13 97 1.6 3.2 0.00 0.00 0.00 93 1054.3
20260510082402 13 93 0.0 1.6 0.00 0.00 0.00 93 1054.3
20260510081901 12 109 0.0 1.6 0.00 0.00 0.00 93 1054.2
20260510081358 13 45 0.0 3.2 0.00 0.00 0.00 93 1054.1
20260510080855 13 116 1.6 1.6 0.00 0.00 0.00 93 1054.1
20260510080348 13 139 4.8 8.0 0.00 0.00 0.00 93 1054.0
20260510075846 13 122 1.6 3.2 0.00 0.00 0.00 92 1054.0
20260510075343 13 89 0.0 1.6 0.00 0.00 0.00 92 1053.9
20260510074839 13 95 1.6 3.2 0.00 0.00 0.00 92 1053.6
20260510074337 13 144 1.6 3.2 0.00 0.00 0.00 92 1054.0
20260510073833 13 108 1.6 3.2 0.00 0.00 0.00 91 1054.0
20260510073329 13 94 3.2 3.2 0.00 0.00 0.00 91 1053.8
20260510072825 13 102 3.2 4.8 0.00 0.00 0.00 91 1053.9
20260510072323 13 117 3.2 4.8 0.00 0.00 0.00 90 1053.8
20260510071818 13 101 1.6 3.2 0.00 0.00 0.00 90 1053.8
20260510071314 13 94 3.2 3.2 0.00 0.00 0.00 89 1053.9
20260510070814 13 99 1.6 1.6 0.00 0.00 0.00 87 1054.0
20260510070310 13 53 0.0 3.2 0.00 0.00 0.00 86 1054.1
20260510065810 13 47 0.0 1.6 0.00 0.00 0.00 87 1053.9
20260510065307 13 55 0.0 3.2 0.00 0.00 0.00 88 1053.8
20260510064804 13 47 1.6 1.6 0.00 0.00 0.00 89 1053.8
20260510064302 13 141 0.0 1.6 0.00 0.00 0.00 88 1053.6
20260510063757 13 143 3.2 3.2 0.00 0.00 0.00 88 1053.5
20260510063253 14 107 1.6 3.2 0.00 0.00 0.00 86 1053.6
20260510062750 14 134 0.0 3.2 0.00 0.00 0.00 85 1053.6
20260510062246 15 106 0.0 1.6 0.00 0.00 0.00 83 1053.4
20260510061741 15 97 1.6 3.2 0.00 0.00 0.00 82 1053.5
20260510061239 15 218 0.0 0.0 0.00 0.00 0.00 83 1053.5
20260510060735 15 214 0.0 0.0 0.00 0.00 0.00 84 1053.6
20260510060232 14 223 1.6 3.2 0.00 0.00 0.00 83 1053.5
20260510055728 14 315 0.0 1.6 0.00 0.00 0.00 85 1053.4
20260510055227 14 230 0.0 0.0 0.00 0.00 0.00 84 1053.4
20260510054727 15 154 0.0 1.6 0.00 0.00 0.00 83 1053.1
20260510054223 15 132 1.6 4.8 0.00 0.00 0.00 83 1053.4
20260510053722 15 167 3.2 4.8 0.00 0.00 0.00 81 1053.4
20260510053219 16 224 0.0 1.6 0.00 0.00 0.00 77 1053.1
20260510052715 16 129 0.0 1.6 0.00 0.00 0.00 78 1053.3
20260510052212 16 94 1.6 1.6 0.00 0.00 0.00 78 1053.5
20260510051707 16 63 0.0 1.6 0.00 0.00 0.00 75 1053.3
20260510051204 17 34 0.0 3.2 0.00 0.00 0.00 72 1053.6
20260510050701 17 44 0.0 1.6 0.00 0.00 0.00 69 1053.5
20260510050158 16 37 0.0 1.6 0.00 0.00 0.00 70 1053.5
20260510045655 16 0 0.0 1.6 0.00 0.00 0.00 72 1053.3
20260510045152 16 22 0.0 0.0 0.00 0.00 0.00 73 1053.1
20260510044648 16 266 0.0 3.2 0.00 0.00 0.00 73 1053.1
20260510044145 16 89 0.0 3.2 0.00 0.00 0.00 74 1053.0
20260510043641 17 91 1.6 4.8 0.00 0.00 0.00 75 1053.0
20260510043138 18 126 1.6 4.8 0.00 0.00 0.00 68 1052.9
20260510042635 18 217 0.0 3.2 0.00 0.00 0.00 62 1052.8
20260510042131 18 197 0.0 3.2 0.00 0.00 0.00 63 1052.7
20260510041628 18 253 0.0 1.6 0.00 0.00 0.00 62 1052.9
20260510041125 18 296 3.2 3.2 0.00 0.00 0.00 64 1052.6
20260510040623 18 238 1.6 3.2 0.00 0.00 0.00 65 1052.4
20260510040119 16 247 3.2 3.2 0.00 0.00 0.00 72 1052.7
20260510035615 16 64 1.6 6.4 0.00 0.00 0.00 74 1052.6
20260510035115 15 39 4.8 4.8 0.00 0.00 0.00 81 1052.0
20260510034612 16 7 3.2 3.2 0.00 0.00 0.00 80 1051.9
20260510034109 16 336 0.0 1.6 0.00 0.00 0.00 80 1052.1
20260510033605 16 233 0.0 1.6 0.00 0.00 0.00 80 1051.8
20260510033103 16 203 0.0 3.2 0.00 0.00 0.00 77 1051.9
20260510032600 16 240 0.0 3.2 0.00 0.00 0.00 76 1051.8
20260510032055 16 207 0.0 1.6 0.00 0.00 0.00 75 1051.8
20260510031550 16 55 0.0 1.6 0.00 0.00 0.00 76 1051.6
20260510031046 15 322 0.0 0.0 0.00 0.00 0.00 80 1051.5
20260510030542 15 224 0.0 1.6 0.00 0.00 0.00 82 1051.6
20260510030039 16 207 3.2 3.2 0.00 0.00 0.00 80 1051.6
20260510025536 16 227 3.2 3.2 0.00 0.00 0.00 75 1051.5
20260510025034 16 119 0.0 1.6 0.00 0.00 0.00 74 1051.5
20260510024530 16 96 0.0 0.0 0.00 0.00 0.00 74 1051.5
20260510024026 17 229 0.0 1.6 0.00 0.00 0.00 74 1051.4
20260510023522 17 221 1.6 1.6 0.00 0.00 0.00 71 1051.3
20260510023020 18 130 0.0 1.6 0.00 0.00 0.00 69 1051.2
20260510022519 18 269 0.0 1.6 0.00 0.00 0.00 67 1051.1
20260510022014 18 28 0.0 0.0 0.00 0.00 0.00 67 1051.2
20260510021511 18 256 0.0 1.6 0.00 0.00 0.00 66 1050.7
20260510021008 18 256 0.0 0.0 0.00 0.00 0.00 65 1050.8
20260510020502 18 66 0.0 0.0 0.00 0.00 0.00 65 1050.3
20260510015958 18 230 0.0 1.6 0.00 0.00 0.00 66 1050.5
20260510015454 18 210 1.6 3.2 0.00 0.00 0.00 65 1050.3
20260510014949 20 180 0.0 0.0 0.00 0.00 0.00 62 1050.3
20260510014447 20 244 0.0 1.6 0.00 0.00 0.00 60 1050.2
20260510013944 20 261 0.0 0.0 0.00 0.00 0.00 59 1050.2
20260510013438 21 309 0.0 0.0 0.00 0.00 0.00 57 1050.2
20260510012934 21 235 0.0 0.0 0.00 0.00 0.00 57 1050.1
20260510012429 21 309 0.0 1.6 0.00 0.00 0.00 55 1049.8
20260510011924 21 249 0.0 1.6 0.00 0.00 0.00 54 1050.1
20260510011419 21 15 0.0 0.0 0.00 0.00 0.00 54 1049.8
20260510010916 21 117 0.0 0.0 0.00 0.00 0.00 54 1049.6
20260510010413 22 205 0.0 0.0 0.00 0.00 0.00 54 1049.6
20260510005910 23 205 0.0 0.0 0.00 0.00 0.00 51 1049.6
20260510005406 25 217 0.0 0.0 0.00 0.00 0.00 49 1049.7
20260510004903 26 233 0.0 0.0 0.00 0.00 0.00 46 1049.5
20260510004401 26 229 0.0 1.6 0.00 0.00 0.00 45 1049.5
20260510003858 26 217 0.0 1.6 0.00 0.00 0.00 46 1049.5
20260510003355 26 199 1.6 3.2 0.00 0.00 0.00 45 1049.4
20260510002854 26 193 1.6 3.2 0.00 0.00 0.00 46 1049.5
20260510002352 26 203 1.6 3.2 0.00 0.00 0.00 49 1049.4
20260510001848 26 183 1.6 3.2 0.00 0.00 0.00 51 1049.6
20260510001346 25 215 1.6 4.8 0.00 0.00 0.00 49 1049.2
20260510000842 25 226 3.2 3.2 0.00 0.00 0.00 49 1049.4
20260510000341 25 210 1.6 3.2 0.00 0.00 0.00 49 1049.4
20260509235836 25 213 3.2 6.4 0.00 0.00 0.00 48 1049.3
20260509235333 26 219 3.2 4.8 0.00 0.00 0.00 44 1049.4
20260509234828 26 218 3.2 8.0 0.00 0.00 0.00 46 1049.5
20260509234326 26 212 3.2 6.4 0.00 0.00 0.00 46 1049.3
20260509233824 25 241 4.8 6.4 0.00 0.00 0.00 43 1049.6
20260509233321 26 232 4.8 8.0 0.00 0.00 0.00 44 1049.4
20260509232817 27 213 3.2 6.4 0.00 0.00 0.00 43 1049.4
20260509232314 27 214 8.0 9.7 0.00 0.00 0.00 42 1049.2
20260509231810 26 223 6.4 9.7 0.00 0.00 0.00 41 1049.3
20260509231308 27 217 4.8 9.7 0.00 0.00 0.00 43 1049.2
20260509230805 25 220 8.0 12.9 0.00 0.00 0.00 42 1049.2
20260509230302 26 216 6.4 16.1 0.00 0.00 0.00 41 1049.3
20260509225757 26 224 4.8 9.7 0.00 0.00 0.00 44 1049.3
20260509225254 26 220 8.0 14.5 0.00 0.00 0.00 40 1049.3
20260509224749 27 263 6.4 12.9 0.00 0.00 0.00 39 1049.4
20260509224247 27 235 6.4 11.3 0.00 0.00 0.00 39 1049.4
20260509223743 27 204 8.0 14.5 0.00 0.00 0.00 37 1049.3
20260509223240 27 284 11.3 17.7 0.00 0.00 0.00 38 1049.4
20260509222737 27 217 3.2 16.1 0.00 0.00 0.00 38 1049.3
20260509222232 28 186 3.2 8.0 0.00 0.00 0.00 39 1049.4
20260509221728 27 253 6.4 9.7 0.00 0.00 0.00 35 1049.4
20260509221225 27 265 8.0 12.9 0.00 0.00 0.00 36 1049.2
20260509220720 28 274 11.3 12.9 0.00 0.00 0.00 35 1049.2
20260509220218 28 236 6.4 9.7 0.00 0.00 0.00 39 1049.4
20260509215713 28 284 6.4 9.7 0.00 0.00 0.00 38 1049.4
20260509215210 27 264 8.0 17.7 0.00 0.00 0.00 36 1049.2
20260509214707 28 272 6.4 8.0 0.00 0.00 0.00 41 1049.2
20260509214204 27 242 6.4 9.7 0.00 0.00 0.00 37 1049.3
20260509213701 27 254 9.7 14.5 0.00 0.00 0.00 41 1049.3
20260509213156 27 294 11.3 11.3 0.00 0.00 0.00 36 1049.3
20260509212654 27 271 9.7 12.9 0.00 0.00 0.00 36 1049.4
20260509212151 28 282 9.7 14.5 0.00 0.00 0.00 36 1049.6
20260509211646 27 220 8.0 9.7 0.00 0.00 0.00 35 1049.4
20260509211143 27 277 14.5 19.3 0.00 0.00 0.00 37 1049.5
20260509210641 27 258 9.7 19.3 0.00 0.00 0.00 36 1049.5
20260509210138 27 249 9.7 12.9 0.00 0.00 0.00 35 1049.8
20260509205633 27 244 9.7 17.7 0.00 0.00 0.00 39 1049.6
20260509205133 27 280 6.4 12.9 0.00 0.00 0.00 42 1049.6
20260509204629 27 247 6.4 8.0 0.00 0.00 0.00 38 1049.6
20260509204126 27 242 12.9 17.7 0.00 0.00 0.00 36 1049.8
20260509203622 27 260 8.0 20.9 0.00 0.00 0.00 37 1049.8